Location: Pulvis Stellarum Observatory
(41.6962°N, 71.4263°W)
Time: 19:12:01
(UTC-05:00)

Daily predictions for brighter satellites

Satellite Brightness Start Highest point End
(mag) Time Altitude Azimuth Time Altitude Azimuth Time Altitude Azimuth
Cosmos 1763 Rocket 3.7 16:43:39 10° N 16:48:42 48° ENE 16:53:39 10° SE
CSL-04 Rocket 3.7 16:44:15 10° SSE 16:49:27 63° ENE 16:54:45 10° N
Cosmos 2082 Rocket 3.3 16:45:20 10° N 16:49:50 23° NE 16:54:16 10° ESE
CZ-2C R/B 3.1 16:46:12 10° S 16:51:08 65° W 16:56:15 10° NNW
Cosmos 1862 4.5 16:49:50 10° NNW 16:53:44 48° W 16:57:37 10° SSW
SJ-12 4.2 16:53:39 10° S 16:57:47 75° WSW 17:01:57 10° NNW
Meteor 2-12 Rocket 4.4 16:53:30 10° S 16:59:35 82° E 17:05:41 10° N
Cosmos 1340 3.3 16:56:03 10° SSW 16:59:46 59° W 17:03:31 10° N
COSMO-SKYMED 1 3.9 16:57:10 10° NE 17:00:27 21° E 17:03:44 10° SE
USA 116 4.5 16:56:29 10° NNE 17:00:35 35° E 17:04:12 10° SSE
YAOGAN 1 3.3 16:57:23 10° SE 17:01:13 32° ENE 17:05:04 10° N
Tsikada Rocket 4.0 16:56:58 10° N 17:03:09 89° E 17:09:20 10° S
GENESIS II 4.3 16:59:20 10° NW 17:03:17 82° WSW 17:07:10 10° SSE
Cosmos 1814 Rocket 4.0 16:58:01 10° NNW 17:03:24 73° ENE 17:08:43 10° SSE
Cosmos 1782 3.9 17:00:32 10° SE 17:03:46 24° E 17:07:02 10° NE
BREEZE-M DEB (TANK) 3.3 17:05:00 10° NW 17:06:37 18° NNE 17:08:36 12° NE
Cosmos 2346 Rocket 4.4 17:01:19 10° N 17:07:28 70° E 17:13:38 10° SSE
BREEZE M DEB (TANK) 4.4 17:05:57 10° WNW 17:08:41 20° SW 17:10:33 10° S
ERS-2 2.9 17:08:34 10° SE 17:11:47 29° ENE 17:15:01 10° N
Cosmos 405 Rocket 4.4 17:10:10 10° ESE 17:12:07 14° E 17:12:31 13° E
SL-27 R/B 3.0 17:09:12 10° N 17:12:15 32° ENE 17:15:19 10° SE
USA 234 4.0 17:08:13 11° ENE 17:13:59 35° SE 17:19:50 10° SSW
Cosmos 540 Rocket 4.1 17:10:38 10° N 17:15:18 33° ENE 17:19:55 10° SE
Lacrosse 5 3.8 17:12:48 10° WNW 17:16:15 18° NNW 17:19:42 10° NNE
Cosmos 2221 Rocket 4.5 17:13:30 10° SSE 17:17:12 27° E 17:20:55 10° NNE
Ariane Rocket 3.1 17:12:22 10° SSE 17:17:27 83° WSW 17:22:34 10° NNW
Cosmos 1844 Rocket 4.0 17:12:19 10° SW 17:17:34 39° WNW 17:22:49 10° N
CZ-2C R/B 3.7 17:16:42 10° NNE 17:21:10 65° ESE 17:25:40 10° S
Cosmos 304 Rocket 3.8 17:16:21 10° NNW 17:21:11 88° WSW 17:25:58 10° SSE
MTI 4.4 17:18:39 10° NNE 17:21:41 36° E 17:24:40 10° SSE
Cosmos 1703 Rocket 3.8 17:18:02 10° SSE 17:22:21 49° E 17:26:40 10° NNE
Cosmos 841 Rocket 3.4 17:18:58 10° NNW 17:24:17 75° ENE 17:29:31 10° SSE
Cosmos 1486 Rocket 4.0 17:29:02 10° SSW 17:34:15 87° WNW 17:39:32 10° NNE
FENGYUN 3A 4.1 17:30:40 10° SE 17:35:38 39° ENE 17:40:38 10° N
Okean 2 Rocket 3.7 17:31:51 10° N 17:35:59 34° ENE 17:40:06 10° SE
Cosmos 1633 2.5 17:34:30 10° N 17:38:08 59° E 17:41:45 10° SSE
Cosmos 1464 Rocket 4.1 17:32:55 10° SSE 17:38:46 51° E 17:44:41 10° NNE
Meteor 1-14 Rocket 4.5 17:33:47 10° NNW 17:39:26 73° W 17:44:58 10° S
Cosmos 44 3.8 17:37:40 10° NNW 17:42:00 37° NE 17:44:23 23° ESE
BREEZE-M DEB (TANK) 4.2 17:43:35 10° WNW 17:45:41 26° N 17:46:38 22° NNE
Cosmos 1833 Rocket 2.7 17:40:40 10° NNW 17:46:15 60° ENE 17:51:48 10° SE
Cosmos 1908 Rocket 3.9 17:43:11 10° NNW 17:47:30 65° W 17:51:46 10° S
SKYMED 2 3.5 17:44:23 10° NNE 17:48:43 70° ESE 17:53:02 10° S
Cosmos 2297 3.7 17:44:12 10° S 17:49:48 62° ESE 17:54:15 17° NNE
BREEZE-M DEB (TANK) 2.9 17:48:35 10° NW 17:50:25 33° NNE 17:50:25 33° NNE
Cosmos 1354 Rocket 3.9 17:46:16 10° S 17:51:30 69° ESE 17:55:56 15° NNE
SPOT 3 Rocket 3.5 17:48:47 10° SSE 17:53:56 66° ENE 17:59:07 10° N
ALOS 2.3 17:49:56 10° SSE 17:54:29 57° ENE 17:59:05 10° N
Cosmos 2278 Rocket 3.0 17:49:03 10° SW 17:54:33 52° WNW 18:00:08 10° NNE
CENTAUR R/B 4.0 17:49:10 10° W 17:54:40 31° NW 18:00:50 10° NNE
Meteor 1-11 Rocket 4.0 17:51:49 10° N 17:57:26 44° ENE 18:02:53 10° SSE
BREEZE-M DEB (TANK) 1.8 17:56:37 10° WSW 17:58:43 83° NNW 17:58:53 74° NE
COSMOS 2455 4.3 17:58:45 10° WSW 18:04:05 32° NW 18:09:29 10° NNE
Sich 1 Rocket 4.4 17:59:59 10° NNW 18:04:17 52° W 18:08:37 10° S
CZ-4 R/B 3.4 18:04:44 10° SSW 18:08:06 28° W 18:11:28 10° NW
NOAA 12 4.0 18:09:06 10° SSE 18:14:26 88° ENE 18:19:46 10° NNW
Cosmos 1441 Rocket 3.3 18:10:42 10° S 18:14:11 59° SE 18:14:11 59° SE
Cosmos 1606 3.9 18:11:10 10° SSW 18:14:45 41° WNW 18:18:22 10° N
Okean 1-7 3.5 18:11:00 10° SSW 18:15:18 60° W 18:19:41 10° N
BREEZE-M R/B 3.4 18:16:11 10° WNW 18:19:06 50° SSW 18:20:54 30° SSE
CZ-4C R/B 3.0 18:14:12 10° NNW 18:21:11 54° NE 18:24:02 37° ESE
Cosmos 1513 Rocket 4.5 18:15:02 10° S 18:21:21 85° W 18:27:36 10° N
EO 1 Del DPAF 4.2 18:19:24 15° N 18:22:16 45° WNW 18:25:55 10° SW
Thor Agena Rocket 3.9 18:27:31 46° SE 18:27:31 46° SE 18:31:34 10° S
CZ-3A R/B 4.0 18:20:38 10° NW 18:33:33 67° SW 18:38:16 16° SSE
Cosmos 2082 Rocket 2.8 18:28:43 10° NNW 18:34:18 57° WSW 18:39:48 10° S
COSMO-SKYMED 1 4.1 18:32:44 10° N 18:36:41 35° WNW 18:40:38 10° SW
Cosmos 405 Rocket 4.1 18:44:16 10° SW 18:47:47 36° WNW 18:47:47 36° WNW
FengYun 1-2 T 4.1 18:47:43 31° S 18:50:29 85° WSW 18:56:05 10° NNW
Nadezhda 4 Rocket 4.0 18:45:26 10° N 18:51:35 78° W 18:57:40 10° S
Cosmos 44 Rocket 3.7 18:50:12 10° NW 18:55:00 59° WSW 18:55:05 58° WSW
USA 234 3.4 18:55:35 51° NNE 18:57:14 68° NW 19:03:42 10° WSW
Cosmos 968 Rocket 3.8 18:53:55 10° SSW 18:58:24 64° WSW 18:58:24 64° WSW
Timation 2 Rocket 4.0 18:52:30 10° NNW 18:59:19 89° NE 19:00:00 74° SSE
Lacrosse 5 4.2 18:58:18 10° NNW 18:59:43 13° N 18:59:43 13° N
Meteor 1-27 Rocket 4.5 18:55:58 10° SSW 19:01:44 54° WNW 19:06:37 15° N
Cosmos 1092 Rocket 4.2 19:02:27 10° N 19:07:23 60° NNW 19:07:23 60° NNW
CZ-4C R/B 4.0 20:03:01 10° NW 20:09:18 38° WSW 20:09:18 38° WSW
